User: anonymous   Login
Location: Myra
(43.4160°N, 88.0960°W)
Time: 13:41:19
(UTC-05:00)
Language:

SL-8 R/B - Orbit

View from above orbital plane
View from above orbital plane
View from above satellite
View from above satellite

Ground track
Ground track

The orbit data is extracted from the following two-line orbital elements,

1 33066U 08031G   17207.74029413 -.00000092 +00000-0 +17444-4 0  9993
2 33066 048.4439 285.3896 0008237 281.4038 222.7227 14.69551273488523
Epoch (UTC): 26 July 2017 17:46:01
Eccentricity: 0.0008237
inclination: 48.4439°
perigee height: 657 km
apogee height: 668 km
right ascension of ascending node: 285.3896°
argument of perigee: 281.4038°
revolutions per day: 14.69551273
mean anomaly at epoch: 222.7227°
orbit number at epoch: 48852

The dashed part of the orbit path shows where the satellite is in the earth's shadow,  

DLR